Regional Weather Roundup
Issued by NWS

Home | Current Version | Previous Version | Graphics & Text | Print | Product List | Glossary On
Versions: 1 2 3 4 5 6 7 8 9 10 11 12 13 14 15 16 17 18 19 20 21 22 23 24 25 26 27 28 29 30 31 32 33 34 35 36 37 38 39 40 41 42 43 44 45 46 47 48 49 50
000
ASUS43 KFSD 011110
RWRSD

WEATHER ROUNDUP FOR SOUTH DAKOTA
NATIONAL WEATHER SERVICE SIOUX FALLS SD
500 AM CST WED MAR 01 2017

NOTE: "FAIR" INDICATES FEW OR NO CLOUDS BELOW 12,000 FEET WITH NO
SIGNIFICANT WEATHER AND/OR OBSTRUCTIONS TO VISIBILITY.


SDZ001>005-009-010-012>017-011200-
NORTHWEST AND NORTH CENTRAL SOUTH DAKOTA

CITY           SKY/WX    TMP DP  RH WIND       PRES   REMARKS
BUFFALO          N/A     25  19  78 NW25G32   29.89R WCI   9
FAITH            N/A     24  21  88 W17       29.94R WCI  11
MOBRIDGE       FLURRIES  18  14  84 S5        29.90S WCI  11
$$

SDZ012>016-024>037-041>051-057-063-072>074-011200-
SOUTHWEST AND SOUTH CENTRAL SOUTH DAKOTA

CITY           SKY/WX    TMP DP  RH WIND       PRES   REMARKS
RAPID CTY ARPT CLEAR     27  18  69 NW22      29.95R WCI  13
PIERRE         PTCLDY    16  13  88 SW5       29.95R WCI   9
CUSTER         CLEAR     18   6  59 W10       29.89R WCI   6
ELLSWORTH AFB  CLEAR     26  20  78 NW18      29.95R WCI  12
PHILIP         CLEAR     17  15  92 W9        29.96R WCI   6
PINE RIDGE     CLOUDY    21  14  74 W8        29.99R WCI  11
SPEARFISH      MOCLDY    23  18  80 W10G21    29.97R WCI  12
WINNER         CLOUDY    25  22  88 W10       29.96R WCI  15
$$

SDZ004>011-016>023-039-040-011200-
NORTHEAST SOUTH DAKOTA

CITY           SKY/WX    TMP DP  RH WIND       PRES   REMARKS
ABERDEEN       CLEAR     16  13  88 NW7       29.94R WCI   6
WATERTOWN      CLOUDY    22  19  89 NW13      29.87R WCI  10
BROOKINGS      CLOUDY    24  22  91 NW8       29.85R WCI  15
SISSETON         N/A     19  15  84 N16       29.90R WCI   4
$$

SDZ017-020-022-023-036>040-048>070-011200-
SOUTHEAST SOUTH DAKOTA

CITY           SKY/WX    TMP DP  RH WIND       PRES   REMARKS
SIOUX FALLS    SNOW      28  26  92 NW17      29.86R VSB 1/2 WCI  16
HURON          MOCLDY    20  19  96 NW13      29.94R WCI   7
CHAMBERLAIN    CLOUDY    28  26  93 NW13      29.95R WCI  17
MITCHELL       CLOUDY    26  23  88 NW16      29.94R WCI  14
YANKTON        CLOUDY    28  23  80 NW23      29.90R WCI  14
$$

ABBREVIATIONS USED IN REMARKS
   TC - TEMPERATURE IN CELSIUS
  WCI - WIND CHILL INDEX
   HX - HEAT INDEX
  VSB - VISIBILITY




USA.gov is the U.S. government's official web portal to all federal, state and local government web resources and services.